Tracking 19149 objects as of 20-Apr-2018
HD Live streaming from Space Station
objects crossing your sky now

CHINASAT 5B (SINOSAT 1)

Track CHINASAT 5B (SINOSAT 1) now!
CHINASAT 5B (SINOSAT 1) is classified as:


NORAD ID: 25404
Int'l Code: 1998-044A
Perigee: 36,071.8 km
Apogee: 36,130.4 km
Inclination: 5.0 °
Period: 1,451.8 minutes
Semi major axis: 42472 km
RCS: 25.1188 m2 (large)
Launch date: July 18, 1998
Source: People's Republic of China (PRC)
Launch site: Xichang Space Center, China (XSC)

11 C-band, broadcasting, business services, direct-to-home TV broadcasting, telecommunications, VSAT networks; Asia Pacific region.
aabbcc
Your satellite tracking list
Your tracking list is empty




NASA's NSSDC Master Catalog

Two Line Element Set (TLE):
1 25404U 98044A   18109.76915944 -.00000116 +00000-0 +00000-0 0  9993
2 25404 004.9909 064.4425 0006906 191.9331 329.0165 00.99185314072343
Source of the keplerian elements: AFSPC